Home > Time Zones > World Clock > Weather > Macau > Macau > Past weeks

Flag for Macau Weather past 2 weeks in Macau, Macau

Now
84 °F

Passing clouds.


Feels Like: 96 °F
Forecast: 82 / 87 °F
Wind: 9 mph from East

Location: Taipa

Current Time: Aug 31, 2014 at 7:21:51 AM

Latest Report: Aug 31, 2014 at 7:00 AM


Visibility: N/A

Pressure: 29.77 "Hg

Humidity: 84%

Dew point: 79 °F

Location of MacauLocation

Historic Weather in Macau — Graph

°F

Macau temperature yesterday

Maximum temperature yesterday: 88 °F (at 9:30 AM)
Minimum temperature yesterday: 82 °F (at 1:30 AM)
Average temperature yesterday: 85 °F

Past Weeks' High & Low Weather Summary

 TemperatureHumidityPressure
High90 °F (Aug 16, 1:30 PM)100% (Aug 19, 5:00 PM)29.95 "Hg (Aug 19, 5:00 PM)
Low73 °F (Aug 19, 5:00 PM)62% (Aug 30, 11:30 AM)29.68 "Hg (Aug 17, 2:30 PM)
Average84 °F82%29.81 "Hg
* Reported Aug 16 6:00 AM — Aug 31 6:00 AM, Macau, Weather by CustomWeather, © 2014

Note: Actual official high and low records may vary slightly from our data, if they occured in-between our weather recording intervals... More about our weather records

Advertising

Macau weather history for previous 24 hours

 ConditionsComfort  
Time TempWeatherWind HumidityBarometerVisibility
6:00 AM
Aug 31
82 °FPassing clouds.10 mph89%29.77 "HgN/A
5:30 AM82 °FPassing clouds.9 mph89%29.77 "HgN/A
5:00 AM82 °FPassing clouds.9 mph89%29.77 "HgN/A
4:30 AM82 °FPassing clouds.12 mph89%29.77 "HgN/A
4:00 AM82 °FPassing clouds.9 mph89%29.77 "HgN/A
3:30 AM84 °FPassing clouds.8 mph84%29.80 "HgN/A
3:00 AM84 °FPassing clouds.9 mph84%29.80 "HgN/A
2:30 AM82 °FPassing clouds.8 mph89%29.80 "HgN/A
2:00 AM84 °FPassing clouds.9 mph84%29.80 "HgN/A
1:00 AM84 °FPassing clouds.9 mph79%29.83 "HgN/A
12:30 AM84 °FPassing clouds.13 mph84%29.83 "HgN/A
12:00 AM84 °FPassing clouds.12 mph84%29.83 "HgN/A
11:30 PM
Aug 30
84 °FPassing clouds.12 mph84%29.86 "HgN/A
11:00 PM84 °FPassing clouds.10 mph84%29.86 "HgN/A
10:30 PM84 °FPassing clouds.8 mph84%29.86 "HgN/A
10:00 PM84 °FPassing clouds.9 mph84%29.86 "HgN/A
9:30 PM84 °FPassing clouds.10 mph84%29.83 "HgN/A
9:00 PM84 °FPassing clouds.9 mph84%29.83 "HgN/A
8:30 PM84 °FPassing clouds.9 mph84%29.83 "HgN/A
8:00 PM84 °FPassing clouds.9 mph84%29.83 "HgN/A
7:30 PM84 °FPassing clouds.8 mph84%29.80 "HgN/A
7:00 PM84 °FPassing clouds.9 mph84%29.80 "HgN/A
6:30 PM84 °FPassing clouds.9 mph84%29.80 "HgN/A
6:00 PM86 °FPassing clouds.9 mph79%29.80 "HgN/A
5:30 PM86 °FPassing clouds.12 mph79%29.77 "HgN/A
5:00 PM86 °FPassing clouds.13 mph75%29.77 "HgN/A
4:30 PM88 °FPassing clouds.13 mph70%29.77 "HgN/A
4:00 PM88 °FPassing clouds.13 mph70%29.77 "HgN/A
3:30 PM88 °FPassing clouds.15 mph70%29.80 "HgN/A
3:00 PM88 °FPassing clouds.13 mph70%29.80 "HgN/A
2:30 PM88 °FPassing clouds.12 mph70%29.83 "HgN/A
2:00 PM88 °FPassing clouds.10 mph70%29.83 "HgN/A
1:30 PM88 °FPassing clouds.3 mph66%29.83 "HgN/A
1:00 PM88 °FPassing clouds.3 mph66%29.83 "HgN/A
12:30 PM88 °FPassing clouds.5 mph66%29.83 "HgN/A
12:00 PM88 °FPassing clouds.5 mph66%29.86 "HgN/A
11:30 AM88 °FPassing clouds.5 mph62%29.86 "HgN/A
11:00 AM88 °FPassing clouds.7 mph66%29.86 "HgN/A
10:30 AM88 °FPassing clouds.8 mph70%29.89 "HgN/A
10:00 AM88 °FPassing clouds.7 mph70%29.89 "HgN/A
9:30 AM88 °FPassing clouds.6 mph66%29.89 "HgN/A
9:00 AM86 °FPassing clouds.5 mph75%29.89 "HgN/A
8:30 AM86 °FPassing clouds.5 mph70%29.89 "HgN/A
8:00 AM86 °FPassing clouds.6 mph75%29.89 "HgN/A
7:30 AM84 °FPassing clouds.6 mph79%29.89 "HgN/A
7:00 AM84 °FPassing clouds.5 mph79%29.86 "HgN/A
Weather by CustomWeather, © 2014

See weather overviewHow to use our weather pages